sat.trackr.live / text

‹ back to catalog

AISTECHSAT 2

NORAD 43768 · 2018-099L

PAYLOAD ACTIVE UNKNOWN

§ Identity

Operator
Country
SPN
Launch date
2018-12-03
Launch site
AFWTR
Launch vehicle
Mass (kg)
RCS (m²)

External: N2YO · Heavens-Above · Gunter

§ Orbital elements

Epoch: 2026-05-25T02:36:53.489088Z

Period
95.04 min
Inclination
97.4311°
Eccentricity
0.0005370
Mean motion
15.15172521 rev/d
Perigee alt
516.8 km
Apogee alt
524.2 km
Semi-major
6,898.6 km
B*
2.4247e-4
RAAN
193.6505°
Arg perigee
38.4715°
Mean anomaly
321.6899°
Rev number
40,878

§ Raw data

AISTECHSAT 21 43768U 18099L   26145.10895242  .00004485  00000+0  24247-3 0  99962 43768  97.4311 193.6505 0005370  38.4715 321.6899 15.15172521408782

JSON: /api/v1/satellites/43768 · /tle

For live sub-satellite position, see the globe view (requires WebGL).

§ Visibility from observer

Set your observer location to see the next 7 days of passes ≥ 10°. The values pass through the URL so the page stays shareable.

No JS? Fill the form by hand. The geolocation button needs JavaScript.

§ Radio — SatNOGS DB

ModeDescriptionDownlinkUplink
FSK AX.100 Mode 5 GFSK4k8 436.730 MHz
FSK AX.100 Mode 5 GFSK9K6 (inactive) 436.730 MHz
GFSK Telemetry (inactive) 436.600 MHz

3 transmitters · refreshed weekly from db.satnogs.org